Weather History for KBID - April, 2014

Change the Weather History Date:

Wednesday, April 2, 2014

  Actual Average Record
Temperature  
Mean Temperature 40 °F -  
Max Temperature 46 °F 50 °F 71 °F (1986)
Min Temperature 33 °F 37 °F 25 °F (1964)
Degree Days  
Heating Degree Days 26    
Moisture  
Dew Point 32 °F    
Average Humidity 71    
Maximum Humidity 87    
Minimum Humidity 46    
Precipitation  
Precipitation 0.00 in - - ()
Sea Level Pressure  
Sea Level Pressure 30.10 in    
Wind  
Wind Speed 7 mph (SW)    
Max Wind Speed 12 mph    
Max Gust Speed -    
Visibility 10 miles    
Events      
Averages and records for this station are not official NWS values.
T = Trace of Precipitation, MM = Missing Value Source: NWS Daily Summary

Daily Weather History Graph

Daily Weather History Graph

Search for Another Location

Airport or City:

Trip Planner

Search our weather history database for the weather conditions in past years. The results will help you decide how hot, cold, wet, or windy it might be!

Date:

Astronomy

Apr. 02, 2014 Rise Set
Actual Time 6:27 AM EDT 7:12 PM EDT
Civil Twilight 6:00 AM EDT 7:40 PM EDT
Nautical Twilight 5:27 AM EDT 8:13 PM EDT
Astronomical Twilight 4:53 AM EDT 8:47 PM EDT
Moon 8:08 AM EDT (4/2) 10:34 PM EDT (4/2)
Length of Visible Light 13h 40m
Length of Day
12h 44m
Waxing Crescent, 10% of the Moon is Illuminated
Apr 2
Waxing Crescent
Apr 7
First Quarter
Apr 15
Full
Apr 22
Last Quarter
Apr 29
New

Hourly Weather History & Observations

Time (EDT) Temp. Windchill Dew Point Humidity Pressure Visibility Wind Dir Wind Speed Gust Speed Precip Events Conditions
12:15 AM 39.2 °F 34.2 °F 30.2 °F 70% 30.11 in 10.0 mi WSW 6.9 mph - N/A   Clear
12:35 AM 37.4 °F 32.1 °F 30.2 °F 75% 30.11 in 10.0 mi WSW 6.9 mph - N/A   Clear
12:55 AM 37.4 °F 32.1 °F 32.0 °F 81% 30.11 in 10.0 mi WSW 6.9 mph - N/A   Clear
1:15 AM 37.4 °F 31.4 °F 32.0 °F 81% 30.11 in 10.0 mi WSW 8.1 mph - N/A   Clear
1:35 AM 37.4 °F 31.4 °F 32.0 °F 81% 30.11 in 10.0 mi WSW 8.1 mph - N/A   Clear
1:55 AM 37.4 °F 31.4 °F 32.0 °F 81% 30.11 in 10.0 mi WSW 8.1 mph - N/A   Clear
2:15 AM 37.4 °F 32.1 °F 32.0 °F 81% 30.11 in 10.0 mi WSW 6.9 mph - N/A   Clear
2:35 AM 35.6 °F 29.9 °F 30.2 °F 81% 30.10 in 10.0 mi WSW 6.9 mph - N/A   Clear
2:55 AM 35.6 °F 29.9 °F 30.2 °F 81% 30.10 in 10.0 mi WSW 6.9 mph - N/A   Clear
3:15 AM 35.6 °F 30.7 °F 30.2 °F 81% 30.10 in 10.0 mi WSW 5.8 mph - N/A   Clear
3:35 AM 35.6 °F 30.7 °F 30.2 °F 81% 30.09 in 10.0 mi WSW 5.8 mph - N/A   Clear
3:55 AM 35.6 °F 31.7 °F 30.2 °F 81% 30.09 in 10.0 mi West 4.6 mph - N/A   Clear
4:15 AM 35.6 °F 29.9 °F 30.2 °F 81% 30.09 in 10.0 mi West 6.9 mph - N/A   Clear
4:35 AM 35.6 °F 29.9 °F 28.4 °F 75% 30.09 in 10.0 mi West 6.9 mph - N/A   Clear
4:55 AM 35.6 °F 31.7 °F 28.4 °F 75% 30.09 in 10.0 mi West 4.6 mph - N/A   Clear
5:15 AM 35.6 °F - 28.4 °F 75% 30.10 in 10.0 mi Calm Calm - N/A   Clear
5:35 AM 37.4 °F - 30.2 °F 75% 30.09 in 10.0 mi Calm Calm - N/A   Clear
5:55 AM 35.6 °F - 30.2 °F 81% 30.10 in 10.0 mi Calm Calm - N/A   Clear
6:15 AM 35.6 °F - 30.2 °F 81% 30.10 in 10.0 mi Calm Calm - N/A   Clear
6:35 AM 33.8 °F - 26.6 °F 75% 30.12 in 10.0 mi Calm Calm - N/A   Clear
6:55 AM 35.6 °F - 30.2 °F 81% 30.13 in 10.0 mi Calm Calm - N/A   Clear
7:15 AM 37.4 °F - 30.2 °F 75% 30.12 in 10.0 mi Calm Calm - N/A   Clear
8:55 AM 41.0 °F - 33.8 °F 76% 30.13 in 10.0 mi Calm Calm - N/A   Clear
9:15 AM 42.8 °F 41.1 °F 30.2 °F 61% 30.14 in 10.0 mi West 3.5 mph - N/A   Clear
9:35 AM 44.6 °F 42.2 °F 30.2 °F 57% 30.14 in 10.0 mi West 4.6 mph - N/A   Clear
9:55 AM 44.6 °F 40.7 °F 30.2 °F 57% 30.15 in 10.0 mi WSW 6.9 mph - N/A   Clear
10:15 AM 44.6 °F 40.2 °F 28.4 °F 53% 30.15 in 10.0 mi West 8.1 mph - N/A   Clear
10:35 AM 46.4 °F 41.9 °F 28.4 °F 50% 30.15 in 10.0 mi West 9.2 mph - N/A   Clear
10:55 AM 46.4 °F 42.4 °F 28.4 °F 50% 30.15 in 10.0 mi West 8.1 mph - N/A   Clear
11:15 AM 46.4 °F 41.9 °F 28.4 °F 50% 30.14 in 10.0 mi WSW 9.2 mph - N/A   Partly Cloudy
11:35 AM 46.4 °F 41.9 °F 28.4 °F 50% 30.14 in 10.0 mi WSW 9.2 mph - N/A   Scattered Clouds
11:55 AM 44.6 °F 39.2 °F 30.2 °F 57% 30.13 in 10.0 mi WSW 10.4 mph - N/A   Mostly Cloudy
12:15 PM 46.4 °F 41.5 °F 30.2 °F 53% 30.13 in 10.0 mi WSW 10.4 mph - N/A   Mostly Cloudy
12:35 PM 44.6 °F 39.2 °F 30.2 °F 57% 30.13 in 10.0 mi WSW 10.4 mph - N/A   Scattered Clouds
12:55 PM 46.4 °F 41.5 °F 30.2 °F 53% 30.12 in 10.0 mi WSW 10.4 mph - N/A   Clear
1:15 PM 44.6 °F 40.2 °F 30.2 °F 57% 30.11 in 10.0 mi WSW 8.1 mph - N/A   Scattered Clouds
1:55 PM 44.6 °F 40.2 °F 30.2 °F 57% 30.09 in 10.0 mi SW 8.1 mph - N/A   Overcast
2:15 PM 46.4 °F 42.9 °F 28.4 °F 50% 30.08 in 10.0 mi SW 6.9 mph - N/A   Overcast
2:35 PM 46.4 °F 42.9 °F 26.6 °F 46% 30.08 in 10.0 mi WSW 6.9 mph - N/A   Overcast
2:55 PM 46.4 °F 42.4 °F 28.4 °F 50% 30.07 in 10.0 mi West 8.1 mph - N/A   Overcast
3:15 PM 46.4 °F 41.5 °F 28.4 °F 50% 30.07 in 10.0 mi SW 10.4 mph - N/A   Overcast
3:35 PM 44.6 °F 39.2 °F 33.8 °F 66% 30.08 in 10.0 mi SW 10.4 mph - N/A   Overcast
3:55 PM 44.6 °F 38.8 °F 33.8 °F 66% 30.07 in 10.0 mi SW 11.5 mph - N/A   Mostly Cloudy
4:15 PM 44.6 °F 38.8 °F 33.8 °F 66% 30.07 in 10.0 mi SSW 11.5 mph - N/A   Scattered Clouds
4:35 PM 44.6 °F 39.2 °F 33.8 °F 66% 30.07 in 10.0 mi SSW 10.4 mph - N/A   Scattered Clouds
4:55 PM 44.6 °F 39.2 °F 33.8 °F 66% 30.07 in 10.0 mi SW 10.4 mph - N/A   Mostly Cloudy
5:15 PM 44.6 °F 38.8 °F 33.8 °F 66% 30.06 in 10.0 mi SSW 11.5 mph - N/A   Overcast
5:35 PM 44.6 °F 38.8 °F 33.8 °F 66% 30.07 in 10.0 mi SSW 11.5 mph - N/A   Overcast
5:55 PM 44.6 °F 38.8 °F 33.8 °F 66% 30.07 in 10.0 mi SW 11.5 mph - N/A   Mostly Cloudy
6:15 PM 44.6 °F 39.2 °F 33.8 °F 66% 30.07 in 10.0 mi SW 10.4 mph - N/A   Clear
6:35 PM 42.8 °F 37.5 °F 33.8 °F 70% 30.07 in 10.0 mi SW 9.2 mph - N/A   Clear
6:55 PM 42.8 °F 38.0 °F 33.8 °F 70% 30.08 in 10.0 mi SW 8.1 mph - N/A   Clear
7:15 PM 41.0 °F 35.8 °F 33.8 °F 76% 30.07 in 10.0 mi SW 8.1 mph - N/A   Clear
7:35 PM 41.0 °F 34.7 °F 33.8 °F 76% 30.07 in 10.0 mi SW 10.4 mph - N/A   Clear
7:55 PM 39.2 °F 32.5 °F 33.8 °F 81% 30.08 in 10.0 mi SSW 10.4 mph - N/A   Clear
8:15 PM 39.2 °F 32.5 °F 33.8 °F 81% 30.08 in 10.0 mi SSW 10.4 mph - N/A   Clear
8:35 PM 39.2 °F 33.0 °F 33.8 °F 81% 30.09 in 10.0 mi SSW 9.2 mph - N/A   Clear
8:55 PM 39.2 °F 33.0 °F 33.8 °F 81% 30.09 in 10.0 mi South 9.2 mph - N/A   Clear
9:15 PM 39.2 °F 33.0 °F 33.8 °F 81% 30.10 in 10.0 mi SSW 9.2 mph - N/A   Clear
9:35 PM 39.2 °F 33.0 °F 35.6 °F 87% 30.09 in 10.0 mi SSW 9.2 mph - N/A   Clear
9:55 PM 39.2 °F 33.0 °F 35.6 °F 87% 30.09 in 10.0 mi SW 9.2 mph - N/A   Clear
10:15 PM 39.2 °F 33.6 °F 35.6 °F 87% 30.09 in 10.0 mi SW 8.1 mph - N/A   Clear
10:35 PM 39.2 °F 33.6 °F 35.6 °F 87% 30.08 in 10.0 mi SSW 8.1 mph - N/A   Clear
10:55 PM 39.2 °F 33.6 °F 35.6 °F 87% 30.08 in 10.0 mi SW 8.1 mph - N/A   Clear
11:15 PM 39.2 °F 34.2 °F 35.6 °F 87% 30.08 in 10.0 mi SW 6.9 mph - N/A   Clear
11:35 PM 39.2 °F 33.6 °F 33.8 °F 81% 30.08 in 10.0 mi SW 8.1 mph - N/A   Clear